Regional Weather Roundup
Issued by NWS Sioux Falls, SD

Home | Current Version | Previous Version | Graphics & Text | Print | Product List | Glossary Off
Versions: 1 2 3 4 5 6 7 8 9 10 11 12 13 14 15 16 17 18 19 20 21 22 23 24 25 26 27 28 29 30 31 32 33 34 35 36 37 38 39 40 41 42 43 44 45 46 47 48 49 50

000
ASUS43 KFSD 261402
RWRFSD

WEATHER ROUNDUP FOR SE SOUTH DAKOTA/SW MINNESOTA/NW IOWA
NATIONAL WEATHER SERVICE SIOUX FALLS SD
800 AM CST MON JAN 26 2015

NOTE: "FAIR" INDICATES FEW OR NO CLOUDS BELOW 12,000 FEET WITH NO
SIGNIFICANT WEATHER AND OR OBSTRUCTIONS TO VISIBILITY.


SDZ038>040-050-052>070-261500-
SOUTHEAST SOUTH DAKOTA

CITY           SKY/WX    TMP DP  RH WIND       PRES   REMARKS
CHAMBERLAIN    NOT AVBL
HURON          PTCLDY    36  32  85 NW10      29.85R
MADISON        FAIR      34  34 100 NW14      29.81R WCI  24
MITCHELL       CLEAR     37  32  82 W10       29.88R
SIOUX FALLS    PTCLDY    36  32  85 NW16      29.81R
WINNER         FAIR      41  32  70 W10       29.95R
YANKTON        CLEAR     37  32  81 W13       29.86R
$$

MNZ071-072-080-081-089-090-097-098-261500-
SOUTHWEST MINNESOTA

CITY           SKY/WX    TMP DP  RH WIND       PRES   REMARKS
FAIRMONT       CLOUDY    36  28  75 W13       29.73F
JACKSON        CLOUDY    36  32  87 W14G21    29.75R
LUVERNE        PTCLDY    34  32  93 W18       29.78S WCI  23
MARSHALL       MOCLDY    36  28  75 NW15      29.77R
MONTEVIDEO     PTCLDY    36  36 100 N9G16     29.74R
PIPESTONE      PTCLDY    36  32  87 NW14      29.77R
REDWOOD FALLS  MOCLDY    36  32  85 W14       29.72R
TRACY          MOCLDY    38  33  81 NW15      29.75R
WINDOM         CLOUDY    36  32  87 W13       29.73S
WORTHINGTON    MOCLDY    34  28  80 W15       29.76R WCI  24
$$

IAZ001>003-012>014-020>022-031-032-NEZ013-014-SDZ071-261500-
NORTHWEST IOWA

CITY           SKY/WX    TMP DP  RH WIND       PRES   REMARKS
ESTHERVILLE    CLOUDY    34  30  85 W17       29.74R WCI  23
SIOUX CITY     CLEAR     34  30  85 W8        29.83S WCI  27
SPENCER        CLOUDY    35  30  82 W15       29.75F WCI  25
$$

ABBREVIATIONS USED IN REMARKS
   TC - TEMPERATURE IN CELSIUS
  WCI - WIND CHILL INDEX
   HX - HEAT INDEX
  VSB - VISIBILITY




USA.gov is the U.S. government's official web portal to all federal, state and local government web resources and services.